FW3318 Weather Reports


time (UTC)temp
F
wind
direction
speed
knots
gust
knots
rain 1hr
in
rain 24hr
in
rain mn
in
humidity
%
barometer
mb
20260510113056 42 360 0.9 3.5 0.00 0.04 0.00 78 994.9
20260510112549 42 5 1.7 3.5 0.00 0.04 0.00 78 995.0
20260510112049 42 329 0.9 3.5 0.00 0.04 0.00 78 995.0
20260510111551 42 24 1.7 4.3 0.00 0.04 0.00 78 995.1
20260510111048 42 31 1.7 4.3 0.00 0.04 0.00 78 995.0
20260510110548 42 29 1.7 7.0 0.00 0.04 0.00 78 995.1
20260510110054 42 355 1.7 7.0 0.00 0.04 0.00 78 995.0
20260510105547 42 5 0.9 3.5 0.00 0.04 0.00 78 995.1
20260510105047 42 5 1.7 3.5 0.00 0.04 0.00 78 995.0
20260510104548 42 11 1.7 4.3 0.00 0.04 0.00 78 995.0
20260510104046 42 333 1.7 5.2 0.00 0.04 0.00 78 994.9
20260510103546 42 24 0.9 3.5 0.00 0.04 0.00 78 994.8
20260510103051 42 24 1.7 7.8 0.00 0.04 0.00 78 994.9
20260510102545 42 355 2.6 7.8 0.00 0.04 0.00 78 994.8
20260510102044 42 61 2.6 5.2 0.00 0.04 0.00 78 994.8
20260510101557 42 355 1.7 3.5 0.00 0.04 0.00 78 994.8
20260510101043 42 32 1.7 3.5 0.00 0.04 0.00 78 994.8
20260510100543 42 351 1.7 3.5 0.00 0.04 0.00 77 994.8
20260510100050 42 355 1.7 3.5 0.00 0.04 0.00 77 994.8
20260510095542 42 5 1.7 3.5 0.00 0.04 0.00 78 994.8
20260510095042 42 273 1.7 4.3 0.00 0.04 0.00 77 994.8
20260510094547 42 22 1.7 5.2 0.00 0.04 0.00 77 994.6
20260510094043 42 29 2.6 5.2 0.00 0.04 0.00 77 994.7
20260510093538 42 13 1.7 3.5 0.00 0.04 0.00 77 994.6
20260510093040 42 27 1.7 5.2 0.00 0.04 0.00 77 994.5
20260510092537 42 17 2.6 5.2 0.00 0.04 0.00 77 994.5
20260510092036 42 355 1.7 3.5 0.00 0.04 0.00 77 994.4
20260510091535 43 10 1.7 3.5 0.00 0.04 0.00 76 994.4
20260510091036 43 360 1.7 8.7 0.00 0.04 0.00 77 994.4
20260510090535 43 355 2.6 8.7 0.00 0.04 0.00 77 994.5
20260510090036 43 5 1.7 4.3 0.00 0.04 0.00 76 994.4
20260510085533 43 22 1.7 4.3 0.00 0.04 0.00 76 994.4
20260510085033 43 5 1.7 3.5 0.00 0.04 0.00 76 994.3
20260510084534 43 355 1.7 3.5 0.00 0.04 0.00 76 994.4
20260510084031 43 355 1.7 3.5 0.00 0.04 0.00 76 994.4
20260510083531 43 355 0.9 2.6 0.00 0.04 0.00 75 994.3
20260510083030 43 322 1.7 2.6 0.00 0.04 0.00 75 994.3
20260510082528 44 319 1.7 2.6 0.00 0.04 0.00 74 994.3
20260510082026 44 317 0.9 3.5 0.00 0.04 0.00 74 994.3
20260510081535 44 313 1.7 3.5 0.00 0.04 0.00 73 994.2
20260510081025 45 342 1.7 3.5 0.00 0.04 0.00 73 994.2
20260510080523 45 345 0.9 3.5 0.00 0.04 0.00 72 994.1
20260510080038 45 355 1.7 3.5 0.00 0.04 0.00 72 994.2
20260510075522 45 324 0.9 7.8 0.00 0.04 0.00 71 994.1
20260510075019 45 331 1.7 7.8 0.00 0.04 0.00 71 994.1
20260510074518 46 319 1.7 3.5 0.00 0.04 0.00 70 994.0
20260510074018 46 355 0.9 4.3 0.00 0.04 0.00 70 994.1
20260510073516 46 26 1.7 4.3 0.00 0.04 0.00 70 994.0
20260510073028 46 23 1.7 4.3 0.00 0.04 0.00 69 994.0
20260510072515 47 26 1.7 4.3 0.00 0.04 0.00 69 993.9
20260510072013 47 16 1.7 3.5 0.00 0.04 0.00 68 993.9
20260510071518 47 20 1.7 5.2 0.00 0.04 0.00 68 993.9
20260510071011 47 15 2.6 5.2 0.00 0.04 0.00 67 993.9
20260510070512 48 10 1.7 5.2 0.00 0.04 0.00 67 993.9
20260510070011 48 9 2.6 10.4 0.00 0.04 0.00 67 993.8
20260510065510 48 26 1.7 10.4 0.00 0.04 0.00 66 993.8
20260510065010 48 10 1.7 4.3 0.00 0.04 0.00 66 993.8
20260510064512 49 30 2.6 4.3 0.00 0.04 0.00 66 993.7
20260510064008 49 5 1.7 4.3 0.00 0.04 0.00 66 993.7
20260510063507 49 21 0.9 4.3 0.00 0.04 0.00 66 993.7
20260510063006 49 20 1.7 4.3 0.00 0.04 0.00 66 993.7
20260510062505 49 48 1.7 4.3 0.00 0.04 0.00 65 993.7
20260510062004 50 40 1.7 4.3 0.00 0.04 0.00 65 993.6
20260510061506 50 21 1.7 5.2 0.00 0.04 0.00 65 993.5
20260510061004 50 25 1.7 5.2 0.00 0.04 0.00 65 993.6
20260510060504 50 9 0.9 3.5 0.00 0.04 0.00 65 993.6
20260510060007 50 5 1.7 4.3 0.00 0.04 0.00 64 993.5
20260510055502 50 22 1.7 4.3 0.00 0.04 0.00 64 993.5
20260510055103 51 5 0.9 4.3 0.00 0.04 0.00 64 993.4
20260510054601 51 5 0.9 2.6 0.00 0.04 0.00 63 993.5
20260510054058 51 341 0.0 3.5 0.00 0.04 0.00 63 993.4
20260510053556 51 30 0.9 3.5 0.00 0.04 0.00 62 993.4
20260510053058 52 24 0.9 3.5 0.00 0.04 0.00 62 993.4
20260510052554 52 329 0.9 3.5 0.00 0.04 0.00 62 993.2
20260510052054 53 5 1.7 3.5 0.00 0.04 0.00 61 993.3
20260510051605 53 325 0.9 3.5 0.00 0.04 0.00 60 993.3
20260510051053 53 323 1.7 4.3 0.00 0.04 0.00 60 993.2
20260510050553 53 309 0.0 5.2 0.00 0.04 0.00 60 993.2
20260510050059 54 24 0.9 6.1 0.00 0.04 0.00 59 993.2
20260510045550 54 5 1.7 6.1 0.00 0.04 0.00 59 993.1
20260510045050 54 43 1.7 3.5 0.00 0.04 0.00 59 993.2
20260510044549 54 5 0.9 2.6 0.00 0.04 0.00 59 993.2
20260510044048 55 48 0.0 2.6 0.00 0.04 0.00 58 993.1
20260510043547 55 50 0.0 2.6 0.00 0.04 0.00 58 993.2
20260510043048 55 5 0.0 3.5 0.00 0.04 0.00 57 993.2
20260510042548 55 34 0.9 3.5 0.00 0.04 0.00 56 993.2
20260510042047 56 9 0.9 3.5 0.00 0.04 0.00 57 993.2
20260510041547 56 42 0.9 4.3 0.00 0.04 0.00 56 993.1
20260510041047 56 32 2.6 4.3 0.00 0.04 0.00 55 993.2
20260510040549 56 19 1.7 4.3 0.00 0.04 0.00 55 993.2
20260510040048 57 329 1.7 7.8 0.00 0.04 0.00 54 993.2
20260510035548 57 14 1.7 7.8 0.00 0.04 0.00 53 993.2
20260510035047 57 69 1.7 6.1 0.00 0.04 0.00 53 993.1
20260510034547 57 27 0.9 7.0 0.00 0.04 0.00 53 993.1
20260510034047 58 33 1.7 7.0 0.00 0.04 0.00 52 993.1
20260510033549 58 37 0.9 8.7 0.00 0.04 0.00 52 993.1
20260510033054 58 52 3.5 8.7 0.00 0.04 0.00 51 993.1
20260510032545 59 32 1.7 7.0 0.00 0.04 0.00 51 993.1
20260510032045 59 322 1.7 3.5 0.00 0.04 0.00 50 993.2
20260510031548 59 313 0.9 4.3 0.00 0.04 0.00 51 993.1
20260510031049 59 34 1.7 5.2 0.00 0.04 0.00 51 993.1
20260510030544 59 360 1.7 5.2 0.00 0.04 0.00 49 993.1
20260510030044 60 20 0.9 7.8 0.00 0.04 0.00 49 993.1
20260510025543 60 83 0.9 7.8 0.00 0.04 0.00 48 993.1
20260510025043 60 46 1.7 5.2 0.00 0.04 0.00 46 993.1
20260510024543 60 35 0.0 7.0 0.00 0.04 0.00 47 993.1
20260510024042 60 313 0.0 7.0 0.00 0.04 0.00 50 993.0
20260510023542 60 98 2.6 7.0 0.00 0.04 0.00 48 993.1
20260510023042 60 5 1.7 4.3 0.00 0.04 0.00 49 993.0
20260510022542 60 305 0.9 4.3 0.00 0.04 0.00 48 992.9
20260510022044 60 355 1.7 7.8 0.00 0.04 0.00 49 992.9
20260510021634 60 40 1.7 7.8 0.00 0.04 0.00 48 993.0
20260510021040 60 22 0.9 5.2 0.00 0.04 0.00 48 993.0
20260510020540 60 63 0.9 3.5 0.00 0.04 0.00 46 993.1
20260510020039 60 164 0.9 3.5 0.00 0.04 0.00 48 993.1
20260510015539 60 18 0.9 3.5 0.00 0.04 0.00 47 993.2
20260510015037 60 82 0.9 5.2 0.00 0.04 0.00 47 993.2
20260510014551 60 77 1.7 7.0 0.00 0.04 0.00 46 993.3
20260510014037 60 76 1.7 7.0 0.00 0.04 0.00 48 993.4
20260510013537 60 98 2.6 6.1 0.00 0.04 0.00 48 993.4
20260510013035 60 65 1.7 4.3 0.00 0.04 0.00 48 993.3
20260510012534 60 103 0.9 7.0 0.00 0.04 0.00 47 993.5
20260510012037 60 84 0.0 7.0 0.00 0.04 0.00 48 993.4
20260510011534 60 70 0.9 5.2 0.00 0.04 0.00 48 993.5
20260510011032 60 175 0.0 3.5 0.00 0.04 0.00 49 993.5
20260510010531 59 131 0.0 3.5 0.00 0.04 0.00 49 993.6
20260510010041 59 105 1.7 3.5 0.00 0.04 0.00 50 993.7
20260510005530 59 155 0.0 3.5 0.00 0.04 0.00 53 993.7
20260510005029 58 86 1.7 3.5 0.00 0.04 0.00 52 993.8
20260510004529 58 80 0.9 2.6 0.00 0.04 0.00 52 993.8
20260510004031 58 103 0.0 3.5 0.00 0.04 0.00 51 993.8
20260510003531 58 80 0.9 3.5 0.00 0.04 0.00 52 993.9
20260510003028 58 20 0.0 2.6 0.00 0.04 0.00 52 993.9
20260510002525 59 187 0.9 2.6 0.00 0.04 0.00 52 994.0
20260510002026 59 202 0.9 6.1 0.00 0.04 0.00 53 994.0
20260510001526 59 135 0.9 6.1 0.00 0.04 0.00 51 994.1
20260510001026 59 152 0.0 7.0 0.00 0.04 0.00 52 994.2
20260510000526 59 111 0.0 7.0 0.00 0.04 0.00 53 994.2
20260510000025 59 162 0.9 3.5 0.00 0.04 0.00 52 994.1
20260509235524 59 141 0.0 3.5 0.00 0.04 0.00 54 994.2
20260509235024 59 88 0.9 3.5 0.00 0.04 0.00 54 994.3
20260509234524 59 143 0.9 5.2 0.00 0.04 0.00 55 994.3
20260509234024 58 123 1.7 5.2 0.00 0.04 0.00 55 994.2
20260509233521 58 209 0.9 4.3 0.00 0.04 0.00 55 994.2
20260509233021 58 131 0.9 4.3 0.00 0.04 0.00 54 994.2
20260509232524 58 152 0.9 6.1 0.00 0.04 0.00 54 994.1
20260509232020 58 225 2.6 6.1 0.00 0.04 0.00 54 994.1
20260509231518 57 126 0.9 5.2 0.00 0.04 0.00 53 994.1
20260509231017 57 102 1.7 6.1 0.00 0.04 0.00 54 994.2
20260509230518 57 111 0.9 7.8 0.00 0.04 0.00 56 994.0
20260509230024 57 55 4.3 7.8 0.00 0.04 0.00 55 994.1
20260509225516 56 180 0.9 4.3 0.00 0.04 0.00 56 994.1
20260509225015 57 176 0.0 4.3 0.00 0.04 0.00 55 994.2
20260509224520 57 60 0.9 3.5 0.00 0.04 0.00 56 994.1
20260509224014 56 22 1.7 6.1 0.00 0.04 0.00 57 994.2
20260509223514 56 36 2.6 6.1 0.00 0.04 0.00 56 994.2
20260509223014 56 355 0.9 7.0 0.00 0.04 0.00 58 994.2
20260509222513 56 21 2.6 7.0 0.00 0.04 0.00 57 994.2
20260509222013 56 49 1.7 4.3 0.00 0.04 0.00 59 994.2
20260509221512 56 67 1.7 5.2 0.00 0.04 0.00 58 994.1
20260509221012 56 314 2.6 5.2 0.00 0.04 0.00 61 994.2
20260509220510 56 127 0.9 5.2 0.00 0.04 0.00 59 994.2
20260509220009 55 131 0.9 8.7 0.00 0.04 0.00 59 994.1
20260509215508 55 133 2.6 8.7 0.00 0.04 0.00 61 994.2
20260509215006 55 44 1.7 9.6 0.00 0.04 0.00 59 994.3
20260509214505 54 65 5.2 8.7 0.00 0.04 0.00 59 994.2
20260509211057 54 107 2.6 5.2 0.00 0.04 0.04 64 994.8
20260509210555 54 115 0.0 5.2 0.00 0.04 0.04 66 994.8
20260509210054 54 92 0.9 5.2 0.00 0.04 0.04 64 994.9
20260509205556 54 281 1.7 6.1 0.00 0.04 0.04 65 994.9
20260509205052 54 107 2.6 5.2 0.00 0.04 0.04 63 994.9
20260509204551 53 50 1.7 5.2 0.00 0.04 0.04 68 994.8
20260509204050 52 95 0.9 2.6 0.00 0.04 0.04 69 994.9
20260509203548 51 269 0.0 1.7 0.00 0.04 0.04 71 995.0
20260509203048 51 269 0.9 3.5 0.00 0.04 0.04 70 995.1
20260509202548 51 269 1.7 3.5 0.00 0.04 0.04 71 995.1
20260509202047 52 310 1.7 3.5 0.00 0.04 0.04 72 995.2
20260509201546 51 272 0.0 3.5 0.00 0.04 0.04 73 995.2
20260509201048 51 283 0.9 3.5 0.00 0.04 0.04 70 995.3
20260509200544 51 66 0.9 3.5 0.00 0.04 0.04 71 995.3
20260509200051 51 96 0.0 1.7 0.00 0.04 0.04 72 995.3
20260509195544 51 98 0.9 3.5 0.00 0.04 0.04 71 995.5
20260509195045 51 101 0.9 3.5 0.00 0.04 0.04 70 995.3
20260509194553 51 34 0.9 2.6 0.00 0.04 0.04 70 995.4
20260509194041 51 86 0.9 2.6 0.00 0.04 0.04 72 995.4
20260509193541 51 82 0.9 2.6 0.00 0.04 0.04 73 995.5
20260509193043 50 179 0.9 2.6 0.00 0.04 0.04 73 995.5
20260509192538 50 111 0.9 3.5 0.00 0.04 0.04 74 995.5
20260509192037 50 92 0.0 3.5 0.00 0.04 0.04 76 995.6
20260509191536 49 58 0.9 3.5 0.00 0.04 0.04 75 995.6
20260509191037 49 45 0.0 3.5 0.00 0.04 0.04 77 995.5
20260509190535 49 5 0.9 4.3 0.00 0.04 0.04 77 995.6
20260509190033 49 86 0.9 4.3 0.00 0.04 0.04 76 995.6
20260509185532 48 33 0.9 3.5 0.00 0.04 0.04 79 995.6
20260509185032 48 101 0.9 6.1 0.00 0.04 0.04 80 995.7
20260509184534 48 94 1.7 6.1 0.00 0.04 0.04 79 995.7
20260509184030 47 67 0.9 5.2 0.00 0.04 0.04 81 995.8
20260509183528 47 111 0.9 5.2 0.00 0.04 0.04 79 995.8
20260509183028 47 10 0.9 6.1 0.00 0.04 0.04 81 995.8
20260509182527 47 24 2.6 6.1 0.00 0.04 0.04 81 995.8
20260509182025 47 65 2.6 5.2 0.00 0.04 0.04 82 995.8
20260509181524 46 73 0.9 2.6 0.00 0.04 0.04 84 995.8
20260509181024 46 200 0.0 4.3 0.00 0.04 0.04 84 995.9
20260509180522 45 98 1.7 4.3 0.00 0.04 0.04 85 995.9
20260509180020 45 71 0.9 5.2 0.00 0.04 0.04 85 995.8
20260509175518 45 71 0.0 7.0 0.00 0.04 0.04 84 995.9
20260509175018 45 92 2.6 7.0 0.00 0.04 0.04 85 995.9
20260509174517 45 117 2.6 6.1 0.00 0.04 0.04 85 995.9
20260509174016 45 97 0.9 6.1 0.00 0.04 0.04 86 996.0
20260509173518 45 30 0.9 4.3 0.00 0.04 0.04 85 996.1
20260509173022 44 74 1.7 4.3 0.00 0.04 0.04 85 996.1
20260509172516 44 84 1.7 5.2 0.00 0.04 0.04 87 996.1
20260509172012 44 84 1.7 5.2 0.00 0.04 0.04 89 996.2
20260509171510 43 80 0.0 3.5 0.00 0.04 0.04 92 996.2
20260509171008 43 40 2.6 3.5 0.00 0.04 0.04 92 996.3
20260509170507 42 76 0.0 3.5 0.00 0.04 0.04 93 996.3
20260509170006 42 51 0.0 3.5 0.00 0.04 0.04 94 996.3
20260509165504 42 56 0.0 3.5 0.00 0.04 0.04 94 996.3
20260509165003 41 65 0.9 3.5 0.00 0.04 0.04 94 996.5
20260509164502 41 78 0.0 3.5 0.00 0.04 0.04 94 996.5
20260509164001 41 92 0.9 3.5 0.00 0.04 0.04 94 996.5
20260509163559 41 78 0.9 2.6 0.00 0.04 0.04 95 996.5
20260509163104 40 89 0.0 2.6 0.00 0.04 0.04 95 996.5
20260509162558 40 82 0.0 0.0 0.00 0.04 0.04 95 996.6
20260509162057 40 328 0.0 0.0 0.00 0.04 0.04 95 996.5
20260509161603 40 328 0.0 0.0 0.00 0.04 0.04 95 996.6
20260509161053 39 328 0.0 0.0 0.00 0.04 0.04 95 996.5
20260509160552 39 323 0.0 0.0 0.00 0.04 0.04 95 996.7
20260509160051 39 323 0.0 0.0 0.00 0.04 0.04 95 996.8
20260509155548 39 323 0.0 0.0 0.00 0.04 0.04 95 996.8
20260509155047 38 319 0.0 0.0 0.00 0.04 0.04 95 996.8
20260509154550 38 319 0.0 0.0 0.00 0.04 0.04 95 996.8
20260509154046 38 319 0.0 0.0 0.00 0.04 0.04 95 997.0
20260509153545 38 319 0.0 0.0 0.00 0.04 0.04 95 996.9
20260509153055 38 319 0.0 0.0 0.00 0.04 0.04 95 997.0
20260509152543 38 319 0.0 0.0 0.00 0.04 0.04 95 997.1
20260509152042 38 319 0.0 0.0 0.00 0.04 0.04 95 997.0
20260509151540 37 319 0.0 0.0 0.00 0.04 0.04 95 997.2
20260509151039 37 319 0.0 0.0 0.00 0.04 0.04 95 997.1
20260509150538 37 319 0.0 0.0 0.00 0.04 0.04 95 997.1
20260509150037 37 319 0.0 0.0 0.00 0.04 0.04 95 997.2
20260509145537 37 319 0.0 0.0 0.00 0.04 0.04 95 997.2
20260509145037 37 319 0.0 0.0 0.00 0.04 0.04 95 997.3
20260509144541 37 319 0.0 0.0 0.00 0.04 0.04 95 997.3
20260509144035 37 319 0.0 0.0 0.00 0.04 0.04 95 997.4
20260509143537 37 319 0.0 0.0 0.00 0.04 0.04 95 997.4
20260509143034 37 319 0.0 0.9 0.00 0.04 0.04 95 997.5
20260509142533 37 319 0.0 1.7 0.00 0.04 0.04 95 997.5
20260509142033 37 319 0.0 0.0 0.01 0.04 0.04 95 997.5
20260509141538 37 321 0.0 0.0 0.01 0.04 0.04 95 997.6
20260509141031 37 321 0.0 0.0 0.01 0.04 0.04 95 997.7
20260509140529 37 321 0.0 0.0 0.01 0.04 0.04 95 997.9
20260509140031 37 321 0.0 0.0 0.01 0.04 0.04 95 997.9
20260509135529 37 321 0.0 0.0 0.01 0.04 0.04 95 997.9
20260509135028 37 321 0.0 0.0 0.01 0.04 0.04 95 998.0
20260509134528 37 321 0.0 0.9 0.01 0.04 0.04 95 998.0
20260509134026 37 321 0.0 1.7 0.01 0.04 0.04 95 998.0
20260509133526 37 321 0.0 1.7 0.01 0.04 0.04 95 998.1
20260509133026 37 321 0.0 1.7 0.01 0.04 0.04 95 998.2
20260509132527 37 321 0.0 0.0 0.01 0.04 0.04 95 998.2
20260509132023 37 321 0.0 0.0 0.00 0.03 0.03 95 998.2
20260509131523 37 321 0.0 1.7 0.01 0.03 0.03 95 998.3
20260509131024 37 321 0.0 1.7 0.01 0.03 0.03 95 998.3
20260509130521 37 321 0.0 0.0 0.01 0.03 0.03 95 998.5
20260509130020 37 321 0.0 0.0 0.01 0.03 0.03 95 998.4
20260509125519 37 321 0.0 0.0 0.01 0.03 0.03 95 998.3
20260509125020 37 321 0.0 0.0 0.01 0.03 0.03 94 998.5
20260509124518 37 321 0.0 0.0 0.01 0.03 0.03 94 998.6
20260509124016 37 321 0.0 0.0 0.01 0.03 0.03 94 998.6
20260509123517 37 321 0.0 0.0 0.01 0.03 0.03 94 998.7
20260509123017 37 321 0.0 0.0 0.01 0.03 0.03 94 998.7
20260509122517 37 321 0.0 0.0 0.01 0.03 0.03 94 998.6
20260509122017 37 321 0.0 0.0 0.02 0.03 0.03 94 998.6
20260509121516 37 321 0.0 0.0 0.01 0.02 0.02 94 998.6
20260509121015 37 321 0.0 1.7 0.01 0.02 0.02 94 998.7
20260509120515 37 321 0.0 1.7 0.02 0.02 0.02 94 998.7
20260509120014 37 321 0.0 0.0 0.02 0.02 0.02 94 998.8
20260509115513 37 321 0.0 0.0 0.02 0.02 0.02 94 998.8
20260509115013 37 321 0.0 0.0 0.02 0.02 0.02 94 998.8
20260509114513 37 321 0.0 0.0 0.02 0.02 0.02 94 998.8
20260509114012 37 321 0.0 0.0 0.02 0.02 0.02 93 999.0
20260509113512 37 321 0.0 0.0 0.02 0.02 0.02 93 999.0